LUSAT-OSCAR-74

operational
NORAD ID: 39440 Int'l Des: 2013-066 Owner: MINCYT Country: AR
LEOCIRCULARRETROGRADESSO

About LUSAT-OSCAR-74

Description loading...

Live Position

Loading 3D Globe...

Upcoming Passes

Altitude History

Altitude vs Time

uPlot chart will show altitude changes over time

Two-Line Element Set

1 39440U 13066AA 26061.12385571 .00007047 00000-0 66309-3 0 9998
2 39440 97.8801 9.7855 0059536 23.9057 336.4906 14.92836104661016
Epoch: Mar 2, 2026 • Age: 38 hours

Current Status

Altitude 636.0 km
Velocity 7.52 km/s
Sub-Earth Point -13.26°S, 176.21°W
Launch Date Nov 21, 2013
Age 12.2 years
Type other

Technical Details

Classification Payload
Mass 3.00 kg
Dry Mass 3.00 kg
Total Mass 3.00 kg
Length 0.20 m
Diameter 0.10 m
Span 0.20 m
Shape Box
Manufacturer INVAP
Bus Type Cubesat 2U
Phase Status In Orbit
Owner/State MINCYT/AR

Large Constellations

Loading constellations...